Volver al catálogo

ONEWEB-0675

ActivoComunicacionesPO
NORAD 55834·PAYLOAD·🇬🇧 United Kingdom

Lanzado Mar 9, 2023 desde Cape Canaveral Space Force Station

Loading…

Próximos Pases (próximas 24 horas)

TLE

ActualizadoSource: CelesTrak SupGP

Época: Sep 14, 2026, 19:55 UTC

1 55834C 23029AQ  26257.83037455 -.00000518  00000+0 -12947-2 0  2575
2 55834  87.9108 287.1178 0001681  95.7690 300.7970 13.19726836    19

Sigue ONEWEB-0675 en tiempo real con AllMySat

Download on the App Store